Location: Mohawk View
(42.7837°N, 73.7885°W)
Time: 18:29:21
(UTC+00:00)

DNEPR-1 R/B - Visible Passes

Search period start: 19 October 2021 00:00
Search period end: 29 October 2021 00:00
Orbit: 588 x 1333 km, 64.6° (Epoch: 18 October)

Date Brightness Start Highest point End Pass type
(mag) Time Alt. Az. Time Alt. Az. Time Alt. Az.
19 Oct 7.1 22:55:05 10° WNW 22:58:00 16° WSW 23:01:09 10° SSW visible
24 Oct 7.0 10:15:17 10° SE 10:17:43 14° ESE 10:20:02 10° E visible
25 Oct 6.0 10:34:22 10° S 10:38:33 28° ESE 10:42:20 10° ENE visible
27 Oct 6.8 09:31:17 10° SE 09:33:36 13° ESE 09:35:48 10° E visible
28 Oct 5.8 09:50:18 10° S 09:54:26 28° ESE 09:58:10 10° ENE visible
